Time,TemperatureF,DewpointF,PressureIn,WindDirection,WindDirectionDegrees,WindSpeedMPH,WindSpeedGustMPH,Humidity,HourlyPrecipIn,Conditions,Clouds,dailyrainin,SolarRadiationWatts/m^2,SoftwareType,DateUTC
2013-09-29 00:00:00,58.0,56.0,-100.00,WNW,292,4.0,-999.0,94,0.06,,,-99.99,0.000000,,2013-09-29 05:00:00,
2013-09-29 00:43:00,58.0,56.0,-100.00,WNW,292,4.0,-999.0,94,0.06,,,-99.99,0.000000,,2013-09-29 05:43:00,
2013-09-29 00:53:00,58.0,56.0,-100.00,WNW,292,4.0,-999.0,94,0.06,,,-99.99,0.000000,,2013-09-29 05:53:00,
2013-09-29 01:00:00,56.0,53.0,-100.00,WNW,292,4.0,-999.0,89,-99.99,,,-99.99,0.000000,,2013-09-29 06:00:00,
2013-09-29 01:42:00,56.0,53.0,-100.00,WNW,292,4.0,-999.0,89,-99.99,,,-99.99,0.000000,,2013-09-29 06:42:00,
2013-09-29 01:52:00,56.0,53.0,-100.00,WNW,292,4.0,-999.0,89,-99.99,,,-99.99,0.000000,,2013-09-29 06:52:00,
2013-09-29 02:00:00,56.0,52.0,-100.00,WNW,292,2.0,-999.0,87,-99.99,,,-99.99,0.000000,,2013-09-29 07:00:00,
2013-09-29 02:43:00,56.0,52.0,-100.00,WNW,292,2.0,-999.0,87,-99.99,,,-99.99,0.000000,,2013-09-29 07:43:00,
2013-09-29 02:52:00,56.0,52.0,-100.00,WNW,292,2.0,-999.0,87,-99.99,,,-99.99,0.000000,,2013-09-29 07:52:00,
2013-09-29 03:00:00,54.0,51.0,-100.00,West,270,3.0,-999.0,88,-99.99,,,-99.99,0.000000,,2013-09-29 08:00:00,
2013-09-29 03:42:00,54.0,51.0,-100.00,West,270,3.0,-999.0,88,-99.99,,,-99.99,0.000000,,2013-09-29 08:42:00,
2013-09-29 03:52:00,54.0,51.0,-100.00,West,270,3.0,-999.0,88,-99.99,,,-99.99,0.000000,,2013-09-29 08:52:00,
2013-09-29 05:00:00,53.0,50.0,-100.00,WNW,292,2.0,-999.0,87,-99.99,,,-99.99,0.000000,,2013-09-29 10:00:00,
2013-09-29 05:43:00,53.0,50.0,-100.00,WNW,292,2.0,-999.0,87,-99.99,,,-99.99,0.000000,,2013-09-29 10:43:00,
2013-09-29 05:53:00,53.0,50.0,-100.00,WNW,292,2.0,-999.0,87,-99.99,,,-99.99,0.000000,,2013-09-29 10:53:00,
2013-09-29 06:00:00,52.0,49.0,-100.00,WNW,292,1.0,-999.0,89,-99.99,,,-99.99,0.000000,,2013-09-29 11:00:00,
2013-09-29 06:42:00,52.0,49.0,-100.00,WNW,292,1.0,-999.0,89,-99.99,,,-99.99,0.000000,,2013-09-29 11:42:00,
2013-09-29 06:52:00,52.0,49.0,-100.00,WNW,292,1.0,-999.0,89,-99.99,,,-99.99,0.000000,,2013-09-29 11:52:00,
2013-09-29 07:00:00,52.0,49.0,-100.00,WNW,292,1.0,-999.0,90,-99.99,,,-99.99,1.160000,,2013-09-29 12:00:00,
2013-09-29 07:42:00,52.0,49.0,-100.00,WNW,292,1.0,-999.0,90,-99.99,,,-99.99,1.160000,,2013-09-29 12:42:00,
2013-09-29 07:52:00,52.0,49.0,-100.00,WNW,292,1.0,-999.0,90,-99.99,,,-99.99,1.160000,,2013-09-29 12:52:00,
2013-09-29 08:00:00,52.0,49.0,-100.00,West,270,1.0,-999.0,90,-99.99,,,-99.99,17.400000,,2013-09-29 13:00:00,
2013-09-29 08:42:00,52.0,49.0,-100.00,West,270,1.0,-999.0,90,-99.99,,,-99.99,17.400000,,2013-09-29 13:42:00,
2013-09-29 08:53:00,52.0,49.0,-100.00,West,270,1.0,-999.0,90,-99.99,,,-99.99,17.400000,,2013-09-29 13:53:00,
2013-09-29 09:00:00,54.0,50.0,-100.00,WNW,292,3.0,-999.0,84,-99.99,,,-99.99,64.959999,,2013-09-29 14:00:00,
2013-09-29 09:43:00,54.0,50.0,-100.00,WNW,292,3.0,-999.0,84,-99.99,,,-99.99,64.959999,,2013-09-29 14:43:00,
2013-09-29 09:52:00,54.0,50.0,-100.00,WNW,292,3.0,-999.0,84,-99.99,,,-99.99,64.959999,,2013-09-29 14:52:00,
2013-09-29 10:00:00,56.0,49.0,-100.00,WNW,292,4.0,-999.0,76,-99.99,,,-99.99,346.839996,,2013-09-29 15:00:00,
2013-09-29 10:45:00,56.0,49.0,-100.00,WNW,292,4.0,-999.0,76,-99.99,,,-99.99,346.839996,,2013-09-29 15:45:00,
2013-09-29 10:55:00,56.0,49.0,-100.00,WNW,292,4.0,-999.0,76,-99.99,,,-99.99,346.839996,,2013-09-29 15:55:00,
2013-09-29 11:00:00,59.0,47.0,-100.00,WSW,247,3.0,-999.0,63,-99.99,,,-99.99,535.919983,,2013-09-29 16:00:00,
2013-09-29 11:44:00,59.0,47.0,-100.00,WSW,247,3.0,-999.0,63,-99.99,,,-99.99,535.919983,,2013-09-29 16:44:00,
2013-09-29 11:54:00,59.0,47.0,-100.00,WSW,247,3.0,-999.0,63,-99.99,,,-99.99,535.919983,,2013-09-29 16:54:00,
2013-09-29 12:00:00,62.0,44.0,-100.00,West,270,3.0,-999.0,52,-99.99,,,-99.99,625.239990,,2013-09-29 17:00:00,
2013-09-29 12:43:00,62.0,44.0,-100.00,West,270,3.0,-999.0,52,-99.99,,,-99.99,625.239990,,2013-09-29 17:43:00,
2013-09-29 12:52:00,62.0,44.0,-100.00,West,270,3.0,-999.0,52,-99.99,,,-99.99,625.239990,,2013-09-29 17:52:00,
2013-09-29 13:00:00,63.0,44.0,-100.00,WSW,247,3.0,-999.0,49,-99.99,,,-99.99,662.359985,,2013-09-29 18:00:00,
2013-09-29 13:42:00,63.0,44.0,-100.00,WSW,247,3.0,-999.0,49,-99.99,,,-99.99,662.359985,,2013-09-29 18:42:00,
2013-09-29 13:52:00,63.0,44.0,-100.00,WSW,247,3.0,-999.0,49,-99.99,,,-99.99,662.359985,,2013-09-29 18:52:00,
2013-09-29 14:00:00,65.0,47.0,-100.00,SW,225,3.0,-999.0,51,-99.99,,,-99.99,647.280029,,2013-09-29 19:00:00,
2013-09-29 14:42:00,65.0,47.0,-100.00,SW,225,3.0,-999.0,51,-99.99,,,-99.99,647.280029,,2013-09-29 19:42:00,
2013-09-29 14:52:00,65.0,47.0,-100.00,SW,225,3.0,-999.0,51,-99.99,,,-99.99,647.280029,,2013-09-29 19:52:00,
2013-09-29 15:00:00,67.0,47.0,-100.00,SW,225,2.0,-999.0,48,-99.99,,,-99.99,582.320007,,2013-09-29 20:00:00,
2013-09-29 15:43:00,67.0,47.0,-100.00,SW,225,2.0,-999.0,48,-99.99,,,-99.99,582.320007,,2013-09-29 20:43:00,
2013-09-29 15:52:00,67.0,47.0,-100.00,SW,225,2.0,-999.0,48,-99.99,,,-99.99,582.320007,,2013-09-29 20:52:00,
2013-09-29 17:00:00,66.0,49.0,-100.00,SSE,157,5.0,-999.0,54,-99.99,,,-99.99,316.679993,,2013-09-29 22:00:00,
2013-09-29 17:43:00,66.0,49.0,-100.00,SSE,157,5.0,-999.0,54,-99.99,,,-99.99,316.679993,,2013-09-29 22:43:00,
2013-09-29 17:53:00,66.0,49.0,-100.00,SSE,157,5.0,-999.0,54,-99.99,,,-99.99,316.679993,,2013-09-29 22:53:00,
2013-09-29 18:00:00,61.0,49.0,-100.00,SSE,157,4.0,-999.0,64,-99.99,,,-99.99,77.720001,,2013-09-29 23:00:00,
2013-09-29 18:43:00,61.0,49.0,-100.00,SSE,157,4.0,-999.0,64,-99.99,,,-99.99,77.720001,,2013-09-29 23:43:00,
2013-09-29 18:53:00,61.0,49.0,-100.00,SSE,157,4.0,-999.0,64,-99.99,,,-99.99,77.720001,,2013-09-29 23:53:00,
2013-09-29 19:00:00,56.0,49.0,-100.00,SSE,157,3.0,-999.0,78,-99.99,,,-99.99,5.800000,,2013-09-30 00:00:00,
2013-09-29 19:42:00,56.0,49.0,-100.00,SSE,157,3.0,-999.0,78,-99.99,,,-99.99,5.800000,,2013-09-30 00:42:00,
2013-09-29 19:52:00,56.0,49.0,-100.00,SSE,157,3.0,-999.0,78,-99.99,,,-99.99,5.800000,,2013-09-30 00:52:00,
2013-09-29 20:00:00,54.0,50.0,-100.00,SSE,157,3.0,-999.0,86,-99.99,,,-99.99,0.000000,,2013-09-30 01:00:00,
2013-09-29 20:42:00,54.0,50.0,-100.00,SSE,157,3.0,-999.0,86,-99.99,,,-99.99,0.000000,,2013-09-30 01:42:00,
2013-09-29 20:52:00,54.0,50.0,-100.00,SSE,157,3.0,-999.0,86,-99.99,,,-99.99,0.000000,,2013-09-30 01:52:00,
2013-09-29 21:00:00,53.0,50.0,-100.00,SSE,157,3.0,-999.0,89,-99.99,,,-99.99,0.000000,,2013-09-30 02:00:00,
2013-09-29 21:42:00,53.0,50.0,-100.00,SSE,157,3.0,-999.0,89,-99.99,,,-99.99,0.000000,,2013-09-30 02:42:00,
2013-09-29 21:52:00,53.0,50.0,-100.00,SSE,157,3.0,-999.0,89,-99.99,,,-99.99,0.000000,,2013-09-30 02:52:00,
2013-09-29 23:00:00,52.0,48.0,-100.00,SE,135,3.0,-999.0,86,-99.99,,,-99.99,0.000000,,2013-09-30 04:00:00,
2013-09-29 23:44:00,52.0,48.0,-100.00,SE,135,3.0,-999.0,86,-99.99,,,-99.99,0.000000,,2013-09-30 04:44:00,
2013-09-29 23:53:00,52.0,48.0,-100.00,SE,135,3.0,-999.0,86,-99.99,,,-99.99,0.000000,,2013-09-30 04:53:00,